Time,TemperatureF,DewpointF,PressureIn,WindDirection,WindDirectionDegrees,WindSpeedMPH,WindSpeedGustMPH,Humidity,HourlyPrecipIn,Conditions,Clouds,dailyrainin,SoftwareType,DateUTC
2013-01-18 00:14:00,35.4,35.0,30.44,WSW,246,0.0,0.0,97,0.00,,,0.00,weatherlink.com 1.10,2013-01-18 06:14:00,
2013-01-18 00:29:00,35.9,35.0,30.45,SW,228,0.0,2.0,97,0.00,,,0.00,weatherlink.com 1.10,2013-01-18 06:29:00,
2013-01-18 00:44:00,36.3,36.0,30.45,NE,44,0.0,1.0,97,0.00,,,0.00,weatherlink.com 1.10,2013-01-18 06:44:00,
2013-01-18 00:59:00,36.8,36.0,30.45,ENE,60,2.0,2.0,97,0.00,,,0.00,weatherlink.com 1.10,2013-01-18 06:59:00,
2013-01-18 01:14:00,37.9,37.0,30.46,NW,322,1.0,4.0,97,0.00,,,0.00,weatherlink.com 1.10,2013-01-18 07:14:00,
2013-01-18 01:29:00,38.5,37.0,30.46,WSW,255,0.0,4.0,94,0.00,,,0.00,weatherlink.com 1.10,2013-01-18 07:29:00,
2013-01-18 01:44:00,38.9,37.0,30.46,East,80,0.0,3.0,93,0.00,,,0.00,weatherlink.com 1.10,2013-01-18 07:44:00,
2013-01-18 01:59:00,38.6,37.0,30.46,NNW,347,0.0,1.0,92,0.00,,,0.00,weatherlink.com 1.10,2013-01-18 07:59:00,
2013-01-18 02:14:00,38.5,36.0,30.47,WNW,292,0.0,2.0,92,0.00,,,0.00,weatherlink.com 1.10,2013-01-18 08:14:00,
2013-01-18 02:29:00,38.3,36.0,30.46,West,262,0.0,3.0,92,0.00,,,0.00,weatherlink.com 1.10,2013-01-18 08:29:00,
2013-01-18 02:44:00,38.2,36.0,30.47,ENE,70,0.0,3.0,92,0.00,,,0.00,weatherlink.com 1.10,2013-01-18 08:44:00,
2013-01-18 02:59:00,37.7,36.0,30.47,SSE,156,1.0,2.0,92,0.00,,,0.00,weatherlink.com 1.10,2013-01-18 08:59:00,
2013-01-18 03:14:00,37.8,36.0,30.47,ENE,70,2.0,3.0,92,0.00,,,0.00,weatherlink.com 1.10,2013-01-18 09:14:00,
2013-01-18 03:29:00,37.7,36.0,30.47,ENE,72,1.0,6.0,92,0.00,,,0.00,weatherlink.com 1.10,2013-01-18 09:29:00,
2013-01-18 03:44:00,37.7,36.0,30.48,East,84,4.0,6.0,92,0.00,,,0.00,weatherlink.com 1.10,2013-01-18 09:44:00,
2013-01-18 03:59:00,37.2,35.0,30.48,ENE,68,1.0,5.0,92,0.00,,,0.00,weatherlink.com 1.10,2013-01-18 09:59:00,
2013-01-18 04:14:00,36.7,35.0,30.48,NE,54,0.0,2.0,93,0.00,,,0.00,weatherlink.com 1.10,2013-01-18 10:14:00,
2013-01-18 04:29:00,35.7,34.0,30.48,ENE,63,1.0,2.0,93,0.00,,,0.00,weatherlink.com 1.10,2013-01-18 10:29:00,
2013-01-18 04:45:00,35.1,34.0,30.48,ENE,76,1.0,2.0,94,0.00,,,0.00,weatherlink.com 1.10,2013-01-18 10:45:00,
2013-01-18 05:00:00,34.5,33.0,30.49,ENE,58,0.0,2.0,95,0.00,,,0.00,weatherlink.com 1.10,2013-01-18 11:00:00,
2013-01-18 05:15:00,34.3,33.0,30.49,ESE,121,1.0,3.0,95,0.00,,,0.00,weatherlink.com 1.10,2013-01-18 11:15:00,
2013-01-18 05:30:00,34.1,33.0,30.49,East,100,0.0,2.0,95,0.00,,,0.00,weatherlink.com 1.10,2013-01-18 11:30:00,
2013-01-18 05:45:00,34.1,33.0,30.49,ENE,75,0.0,3.0,96,0.00,,,0.00,weatherlink.com 1.10,2013-01-18 11:45:00,
2013-01-18 06:00:00,33.9,33.0,30.50,North,352,1.0,2.0,96,0.00,,,0.00,weatherlink.com 1.10,2013-01-18 12:00:00,
2013-01-18 06:15:00,33.7,33.0,30.50,ENE,77,1.0,2.0,96,0.00,,,0.00,weatherlink.com 1.10,2013-01-18 12:15:00,
2013-01-18 06:30:00,33.6,33.0,30.50,ESE,104,0.0,3.0,96,0.00,,,0.00,weatherlink.com 1.10,2013-01-18 12:30:00,
2013-01-18 06:45:00,33.1,32.0,30.50,East,99,0.0,1.0,96,0.00,,,0.00,weatherlink.com 1.10,2013-01-18 12:45:00,
2013-01-18 07:00:00,32.8,32.0,30.50,North,11,0.0,1.0,96,0.00,,,0.00,weatherlink.com 1.10,2013-01-18 13:00:00,
2013-01-18 07:15:00,32.3,31.0,30.51,North,11,0.0,1.0,96,0.00,,,0.00,weatherlink.com 1.10,2013-01-18 13:15:00,
2013-01-18 07:30:00,33.5,33.0,30.51,ESE,111,0.0,1.0,97,0.00,,,0.00,weatherlink.com 1.10,2013-01-18 13:30:00,
2013-01-18 07:45:00,34.7,34.0,30.51,NE,49,3.0,4.0,97,0.00,,,0.00,weatherlink.com 1.10,2013-01-18 13:45:00,
2013-01-18 08:00:00,36.0,35.0,30.51,NE,53,2.0,4.0,95,0.00,,,0.00,weatherlink.com 1.10,2013-01-18 14:00:00,
2013-01-18 08:15:00,37.2,35.0,30.51,ENE,78,5.0,6.0,93,0.00,,,0.00,weatherlink.com 1.10,2013-01-18 14:15:00,
2013-01-18 08:30:00,38.2,36.0,30.52,NE,55,4.0,8.0,90,0.00,,,0.00,weatherlink.com 1.10,2013-01-18 14:30:00,
2013-01-18 08:45:00,39.2,36.0,30.52,East,89,3.0,8.0,89,0.00,,,0.00,weatherlink.com 1.10,2013-01-18 14:45:00,
2013-01-18 09:00:00,39.5,36.0,30.52,East,95,3.0,7.0,87,0.00,,,0.00,weatherlink.com 1.10,2013-01-18 15:00:00,
2013-01-18 09:15:00,40.4,37.0,30.53,ENE,70,3.0,7.0,86,0.00,,,0.00,weatherlink.com 1.10,2013-01-18 15:15:00,
2013-01-18 09:30:00,42.0,37.0,30.53,ENE,70,5.0,9.0,83,0.00,,,0.00,weatherlink.com 1.10,2013-01-18 15:30:00,
2013-01-18 09:45:00,43.6,38.0,30.53,ESE,102,4.0,10.0,79,0.00,,,0.00,weatherlink.com 1.10,2013-01-18 15:45:00,
2013-01-18 10:00:00,45.6,39.0,30.54,ESE,103,6.0,8.0,77,0.00,,,0.00,weatherlink.com 1.10,2013-01-18 16:00:00,
2013-01-18 10:15:00,46.7,36.0,30.53,SE,134,6.0,12.0,67,0.00,,,0.00,weatherlink.com 1.10,2013-01-18 16:15:00,
2013-01-18 10:30:00,47.5,36.0,30.53,SE,142,4.0,11.0,64,0.00,,,0.00,weatherlink.com 1.10,2013-01-18 16:30:00,
2013-01-18 10:46:00,48.8,34.0,30.52,East,80,7.0,9.0,58,0.00,,,0.00,weatherlink.com 1.10,2013-01-18 16:46:00,
2013-01-18 11:01:00,50.1,36.0,30.51,East,87,7.0,9.0,58,0.00,,,0.00,weatherlink.com 1.10,2013-01-18 17:01:00,
2013-01-18 11:16:00,51.1,36.0,30.50,ENE,75,3.0,8.0,57,0.00,,,0.00,weatherlink.com 1.10,2013-01-18 17:16:00,
2013-01-18 11:31:00,51.9,36.0,30.49,East,82,4.0,10.0,55,0.00,,,0.00,weatherlink.com 1.10,2013-01-18 17:31:00,
2013-01-18 11:46:00,53.2,33.0,30.48,ENE,65,4.0,8.0,47,0.00,,,0.00,weatherlink.com 1.10,2013-01-18 17:46:00,
2013-01-18 12:01:00,53.8,34.0,30.47,SE,129,3.0,8.0,48,0.00,,,0.00,weatherlink.com 1.10,2013-01-18 18:01:00,
2013-01-18 12:16:00,54.5,34.0,30.46,ENE,64,6.0,8.0,46,0.00,,,0.00,weatherlink.com 1.10,2013-01-18 18:16:00,
2013-01-18 12:31:00,54.9,33.0,30.45,NE,43,3.0,10.0,44,0.00,,,0.00,weatherlink.com 1.10,2013-01-18 18:31:00,
2013-01-18 12:46:00,55.4,32.0,30.44,East,80,4.0,8.0,42,0.00,,,0.00,weatherlink.com 1.10,2013-01-18 18:46:00,
2013-01-18 13:01:00,55.9,35.0,30.43,ESE,122,1.0,7.0,46,0.00,,,0.00,weatherlink.com 1.10,2013-01-18 19:01:00,
2013-01-18 13:16:00,55.8,32.0,30.43,ENE,58,6.0,8.0,41,0.00,,,0.00,weatherlink.com 1.10,2013-01-18 19:16:00,
2013-01-18 13:31:00,56.6,31.0,30.43,ENE,71,6.0,9.0,38,0.00,,,0.00,weatherlink.com 1.10,2013-01-18 19:31:00,
2013-01-18 13:46:00,56.8,33.0,30.42,East,95,2.0,7.0,40,0.00,,,0.00,weatherlink.com 1.10,2013-01-18 19:46:00,
2013-01-18 14:01:00,57.6,33.0,30.41,ESE,106,4.0,7.0,39,0.00,,,0.00,weatherlink.com 1.10,2013-01-18 20:01:00,
2013-01-18 14:16:00,57.6,32.0,30.41,NNE,18,0.0,6.0,38,0.00,,,0.00,weatherlink.com 1.10,2013-01-18 20:16:00,
2013-01-18 14:31:00,57.9,34.0,30.41,ENE,77,5.0,8.0,40,0.00,,,0.00,weatherlink.com 1.10,2013-01-18 20:31:00,
2013-01-18 14:47:00,58.0,34.0,30.40,SE,128,2.0,7.0,40,0.00,,,0.00,weatherlink.com 1.10,2013-01-18 20:47:00,
2013-01-18 15:01:00,58.3,32.0,30.40,NE,40,5.0,8.0,37,0.00,,,0.00,weatherlink.com 1.10,2013-01-18 21:01:00,
2013-01-18 15:16:00,58.2,32.0,30.40,ENE,69,3.0,6.0,38,0.00,,,0.00,weatherlink.com 1.10,2013-01-18 21:16:00,
2013-01-18 15:31:00,58.9,34.0,30.40,ENE,70,0.0,3.0,40,0.00,,,0.00,weatherlink.com 1.10,2013-01-18 21:31:00,
2013-01-18 15:46:00,59.7,35.0,30.40,SSE,164,4.0,5.0,40,0.00,,,0.00,weatherlink.com 1.10,2013-01-18 21:46:00,
2013-01-18 16:01:00,58.8,33.0,30.40,ESE,110,2.0,4.0,38,0.00,,,0.00,weatherlink.com 1.10,2013-01-18 22:01:00,
2013-01-18 16:16:00,58.4,34.0,30.39,ESE,103,1.0,3.0,40,0.00,,,0.00,weatherlink.com 1.10,2013-01-18 22:16:00,
2013-01-18 16:31:00,57.6,34.0,30.39,ESE,105,1.0,2.0,42,0.00,,,0.00,weatherlink.com 1.10,2013-01-18 22:31:00,
2013-01-18 16:46:00,57.0,34.0,30.39,East,83,1.0,2.0,43,0.00,,,0.00,weatherlink.com 1.10,2013-01-18 22:46:00,
2013-01-18 17:01:00,55.3,34.0,30.39,East,92,0.0,3.0,44,0.00,,,0.00,weatherlink.com 1.10,2013-01-18 23:01:00,
2013-01-18 17:16:00,52.4,36.0,30.40,East,92,0.0,0.0,53,0.00,,,0.00,weatherlink.com 1.10,2013-01-18 23:16:00,
2013-01-18 17:31:00,49.6,36.0,30.40,East,92,0.0,0.0,60,0.00,,,0.00,weatherlink.com 1.10,2013-01-18 23:31:00,
2013-01-18 17:46:00,47.6,35.0,30.40,East,91,0.0,0.0,63,0.00,,,0.00,weatherlink.com 1.10,2013-01-18 23:46:00,
2013-01-18 18:01:00,45.3,35.0,30.39,East,91,0.0,0.0,68,0.00,,,0.00,weatherlink.com 1.10,2013-01-19 00:01:00,
2013-01-18 18:16:00,44.4,39.0,30.40,East,91,0.0,0.0,81,0.00,,,0.00,weatherlink.com 1.10,2013-01-19 00:16:00,
2013-01-18 18:31:00,43.3,39.0,30.40,East,92,0.0,0.0,85,0.00,,,0.00,weatherlink.com 1.10,2013-01-19 00:31:00,
2013-01-18 18:46:00,42.0,39.0,30.40,East,91,0.0,0.0,88,0.00,,,0.00,weatherlink.com 1.10,2013-01-19 00:46:00,
2013-01-18 19:01:00,41.0,38.0,30.41,East,92,0.0,0.0,89,0.00,,,0.00,weatherlink.com 1.10,2013-01-19 01:01:00,
2013-01-18 19:16:00,39.9,37.0,30.41,East,92,0.0,0.0,89,0.00,,,0.00,weatherlink.com 1.10,2013-01-19 01:16:00,
2013-01-18 19:32:00,39.0,37.0,30.41,SSE,149,0.0,2.0,91,0.00,,,0.00,weatherlink.com 1.10,2013-01-19 01:32:00,
2013-01-18 19:47:00,38.9,36.0,30.41,SSE,152,0.0,1.0,90,0.00,,,0.00,weatherlink.com 1.10,2013-01-19 01:47:00,
2013-01-18 20:02:00,38.4,36.0,30.41,SSE,152,0.0,0.0,91,0.00,,,0.00,weatherlink.com 1.10,2013-01-19 02:02:00,
2013-01-18 20:17:00,37.7,36.0,30.41,SSE,152,0.0,0.0,92,0.00,,,0.00,weatherlink.com 1.10,2013-01-19 02:17:00,
2013-01-18 20:32:00,37.2,35.0,30.41,SSE,152,0.0,0.0,93,0.00,,,0.00,weatherlink.com 1.10,2013-01-19 02:32:00,
2013-01-18 20:47:00,36.6,35.0,30.41,SSE,152,0.0,0.0,93,0.00,,,0.00,weatherlink.com 1.10,2013-01-19 02:47:00,
2013-01-18 21:02:00,36.2,35.0,30.41,SSE,152,0.0,0.0,94,0.00,,,0.00,weatherlink.com 1.10,2013-01-19 03:02:00,
2013-01-18 21:17:00,35.9,34.0,30.41,SSE,152,0.0,0.0,94,0.00,,,0.00,weatherlink.com 1.10,2013-01-19 03:17:00,
2013-01-18 21:32:00,35.7,34.0,30.41,SSE,152,0.0,0.0,95,0.00,,,0.00,weatherlink.com 1.10,2013-01-19 03:32:00,
2013-01-18 21:47:00,35.4,34.0,30.41,SSE,152,0.0,0.0,95,0.00,,,0.00,weatherlink.com 1.10,2013-01-19 03:47:00,
2013-01-18 22:02:00,35.0,34.0,30.41,SSE,152,0.0,0.0,95,0.00,,,0.00,weatherlink.com 1.10,2013-01-19 04:02:00,
2013-01-18 22:17:00,34.5,33.0,30.41,SSE,152,0.0,1.0,95,0.00,,,0.00,weatherlink.com 1.10,2013-01-19 04:17:00,
2013-01-18 22:32:00,34.4,33.0,30.40,SSE,152,0.0,0.0,96,0.00,,,0.00,weatherlink.com 1.10,2013-01-19 04:32:00,
2013-01-18 22:47:00,34.2,33.0,30.40,SSE,152,0.0,0.0,96,0.00,,,0.00,weatherlink.com 1.10,2013-01-19 04:47:00,
2013-01-18 23:02:00,33.7,33.0,30.40,SSE,152,0.0,0.0,96,0.00,,,0.00,weatherlink.com 1.10,2013-01-19 05:02:00,
2013-01-18 23:17:00,33.3,32.0,30.40,SSE,152,0.0,0.0,96,0.00,,,0.00,weatherlink.com 1.10,2013-01-19 05:17:00,
2013-01-18 23:32:00,33.0,32.0,30.40,SSE,152,0.0,0.0,96,0.00,,,0.00,weatherlink.com 1.10,2013-01-19 05:32:00,
2013-01-18 23:47:00,32.7,32.0,30.40,SSE,152,0.0,0.0,96,0.00,,,0.00,weatherlink.com 1.10,2013-01-19 05:47:00,